[[{"header":{"parameterUnit":"m.s-1","parameterCategory":1,"la1":30.2991,"la2":30.254,"lo1":-89.0895,"lo2":-89.0444,"dy":0.0017,"dx":0.0017,"nx":28,"ny":28,"refTime":"2024-06-17T09:00:00:Z","depth":0,"parameterNumber":2,"parameterNumberName":"U-component_of_WINDS"},"data":[0,0,0,0,0,0,0,0,0,0,0,0,0,0,0,0,0,0,0,0,0,0,0,0,0,0,0,0,0,0,0,0,0,0,0,0,0,0,0,0,0,0,0,0,0,0,0,0,0,0,0,0,0,0,0,0,0,0,-4.9906,-4.9907,0,-5.0007,-5.0008,-5.0009,-4.9984,-4.9982,-4.998,-4.9978,-5.0078,-5.0082,-5.0086,0,0,0,0,0,0,0,0,0,0,0,0,0,-4.9685,-4.9689,-4.9905,-4.9907,-4.9908,-5.0007,-5.0008,-5.001,-4.9984,-4.9982,-4.998,-4.9977,-5.0076,-5.0081,-5.0087,0,0,0,0,0,0,0,0,0,0,0,0,0,-4.9783,-4.969,-4.9905,-4.9908,-4.9909,-5.0007,-5.0008,-5.001,-4.9985,-4.9982,-4.9979,-4.9976,-5.0074,-5.0081,-5.0087,-5.0188,0,0,-5.0108,-5.0111,0,0,0,0,0,0,0,0,-4.9777,-4.9791,-4.9906,-4.9908,-4.9909,-4.998,-4.9967,-5.0069,-4.9986,-4.9956,-4.9978,-4.9975,-5.0047,-5.0056,-5.0081,-5.0193,-5.0197,-5.0109,-5.0113,-5.0116,-5.0117,0,0,0,0,0,0,0,-4.9771,-4.9786,-4.9946,-4.9908,-4.991,-4.9902,-4.9912,-4.9986,-5.0017,-4.9958,-4.9957,-4.9969,-5.0047,-5.0075,-5.0083,-5.0198,-5.0108,-5.0114,-5.0118,-5.0121,-5.0394,-5.0397,0,0,0,0,0,0,-4.9763,-4.9781,-4.9942,-4.9949,-4.9835,-4.9908,-4.992,-4.996,-5.0016,-5.0022,-4.9972,-4.9968,-5.0065,-5.0076,-5.0087,-5.0206,-5.0115,-5.0122,-5.0126,-5.0391,-5.0395,-5.0398,0,0,0,0,0,0,-4.9759,-4.9778,-4.9938,-4.9864,-4.9884,-4.9915,-4.996,-4.9964,-4.9991,-5.0026,-5.0031,-4.9994,-5.0063,-5.0077,-5.0163,-5.0209,-5.0125,-5.0131,-5.0387,-5.0392,-5.0397,-5.0446,0,0,0,0,0,0,-4.9752,-4.9776,-4.9816,-4.9866,-4.9888,-5.0014,-4.9963,-4.9968,-5.0003,-4.9999,-5.0049,-5.0054,-5.0062,-5.0153,-5.0169,-5.0217,-5.0136,-5.0383,-5.0389,-5.0395,-5.044,-5.0452,-5.0462,0,0,0,0,0,-4.9745,-4.9825,-4.9818,-4.9838,-4.9939,-5.0017,-5.003,-5.0038,-5.0007,-5.0046,-5.0069,-5.0052,-5.0202,-5.0162,-5.018,-5.023,-5.038,-5.0388,-5.0395,-5.0435,-5.045,-5.0462,0,0,0,0,0,0,-4.9779,-4.9832,-4.9824,-4.9924,-4.9966,-5.0012,-5.0062,-5.0053,-5.0104,-5.0098,-5.0105,-5.0116,-5.0203,-5.0226,-5.018,-5.0329,-5.0286,-5.0298,-5.0311,-5.0325,-5.0335,-5.0327,-5.0142,0,0,0,0,0,-4.9798,-4.9859,-4.9901,-4.9985,-5.0007,-5.0031,-5.0065,-5.0068,-5.0112,-5.0129,-5.0157,-5.0199,-5.0255,-5.0291,-5.0345,-5.0444,-5.0453,-5.0488,-5.0498,-5.0507,-5.0516,-5.0567,-5.0582,-5.0422,-5.0422,-5.0422,0,0,-4.9838,-4.9875,-4.9912,-4.9993,-5.0026,-5.0086,-5.0046,-5.0112,-5.0156,-5.0138,-5.022,-5.0243,-5.0289,-5.0382,-5.0424,-5.0403,-5.0562,-5.0516,-5.0523,-5.0527,-5.0576,-5.0591,-5.0605,-5.0427,-5.0426,-5.0426,0,0,-4.9942,-4.9977,-5.0049,-5.0084,-5.0135,-5.015,-5.0168,-5.0215,-5.023,-5.0313,-5.03,-5.0352,-5.0449,-5.0482,-5.0512,-5.0628,-5.0613,-5.0645,-5.07,-5.075,-5.0763,-5.0774,-5.0812,-5.0826,-5.0654,-5.0654,-5.0654,0,-4.9985,-5.0077,-5.0087,-5.0154,-5.0189,-5.0178,-5.0249,-5.0282,-5.0347,-5.037,-5.0347,-5.0468,-5.0498,-5.0597,-5.0625,-5.065,-5.0668,-5.0638,-5.076,-5.0772,-5.0782,-5.0819,-5.0834,-5.0658,-5.0657,-5.0657,-5.0657,0,-5.0126,-5.019,-5.0242,-5.0306,-5.0347,-5.0416,-5.0435,-5.0475,-5.0475,-5.0492,-5.0575,-5.0612,-5.0672,-5.0696,-5.0696,-5.0794,-5.078,-5.0759,-5.0715,-5.08,-5.0835,-5.0849,-5.0662,-5.0661,-5.066,-5.0659,0,0,-5.0252,-5.0322,-5.034,-5.0368,-5.0424,-5.0473,-5.0541,-5.0601,-5.0633,-5.0679,-5.0734,-5.0817,-5.0797,-5.0831,-5.0835,-5.0879,-5.0965,-5.0852,-5.0853,-5.0869,-5.1072,-5.1085,-5.1101,-5.0957,-5.096,-5.0962,-5.1067,0,-5.0358,-5.0479,-5.049,-5.0598,-5.0655,-5.0645,-5.0704,-5.0744,-5.0762,-5.0812,-5.0832,-5.0889,-5.086,-5.088,-5.0924,-5.0945,-5.1005,-5.0938,-5.1006,-5.1008,-5.0992,-5.112,-5.1135,-5.1231,-5.1081,-5.1083,-5.1085,0,-5.0498,-5.0548,-5.0662,-5.0708,-5.0733,-5.0785,-5.084,-5.089,-5.0933,-5.0943,-5.0981,-5.0978,-5.1046,-5.1002,-5.1094,-5.1048,-5.1077,-5.1091,-5.1095,-5.1099,-5.1049,-5.1124,-5.1263,-5.1276,-5.1106,-5.1105,-5.1103,0,-5.0575,-5.0672,-5.0751,-5.0776,-5.0833,-5.087,-5.0895,-5.0936,-5.097,-5.1018,-5.104,-5.1095,-5.1124,-5.1166,-5.1177,-5.1145,-5.1268,-5.1226,-5.1275,-5.1275,-5.1299,-5.1297,-5.1441,-5.1323,-5.1323,-5.1322,-5.1322,0,-5.0691,-5.076,-5.0787,-5.0835,-5.0912,-5.0924,-5.0998,-5.1021,-5.1058,-5.1109,-5.1104,-5.1152,-5.1166,-5.1216,-5.1226,-5.1299,-5.1313,-5.1321,-5.1322,-5.1319,-5.1318,-5.1336,-5.1328,-5.1326,-5.1326,-5.1325,-5.1324,0,-5.0789,-5.081,-5.0896,-5.0943,-5.0956,-5.101,-5.1049,-5.1095,-5.1112,-5.1177,-5.1193,-5.122,-5.1279,-5.1295,-5.1366,-5.1372,-5.1456,-5.1453,-5.1442,-5.1441,-5.1489,-5.1483,-5.1647,-5.1667,-5.1538,-5.154,-5.1541,0,-5.086,-5.0913,-5.0966,-5.1,-5.1027,-5.1083,-5.1119,-5.1132,-5.1169,-5.1222,-5.1261,-5.1319,-5.1366,-5.146,-5.1484,-5.1537,-5.1533,-5.1587,-5.1541,-5.1536,-5.153,-5.1526,-5.153,-5.1594,-5.1596,-5.1597,-5.1598,0,-5.0983,-5.0991,-5.1043,-5.1099,-5.1142,-5.1186,-5.1228,-5.1257,-5.1276,-5.1317,-5.1377,-5.1414,-5.1486,-5.1542,-5.1596,-5.1619,-5.1611,-5.1613,-5.1626,-5.1623,-5.1613,-5.1616,-5.1462,-5.1608,-5.1607,-5.1606,-5.1606,-5.1605,-5.1068,-5.1114,-5.1158,-5.1215,-5.1249,-5.1289,-5.1333,-5.1357,-5.1408,-5.1468,-5.1473,-5.1537,-5.1578,-5.1649,-5.1676,-5.1725,-5.1709,-5.1729,-5.1734,-5.1738,-5.1741,-5.1608,-5.1735,-5.1735,-5.1734,-5.1734,-5.1734,0,-5.1189,-5.1216,-5.127,-5.1329,-5.1374,-5.1365,-5.1411,-5.1448,-5.1506,-5.1545,-5.1591,-5.1659,-5.1714,-5.1744,-5.1798,-5.1831,-5.1828,-5.1845,-5.1841,-5.1846,-5.1753,-5.1735,-5.1846,-5.1846,-5.1846,-5.1846,-5.1846,-5.1846,-5.1257,-5.1333,-5.1346,-5.1437,-5.1464,-5.1528,-5.1555,-5.159,-5.1622,-5.1698,-5.1744,-5.1764,-5.1798,-5.1854,-5.1903,-5.1911,-5.1929,-5.1947,-5.1951,-5.1864,-5.1853,-5.1841,-5.1824,-5.1952,-5.1952,-5.2039,-5.204,-5.2041]},{"header":{"parameterUnit":"m.s-1","parameterCategory":1,"la1":30.2991,"la2":30.254,"lo1":-89.0895,"lo2":-89.0444,"dy":0.0017,"dx":0.0017,"nx":28,"ny":28,"refTime":"2024-06-17T09:00:00:Z","depth":0,"parameterNumber":3,"parameterNumberName":"V-component_of_WINDS"},"data":[0,0,0,0,0,0,0,0,0,0,0,0,0,0,0,0,0,0,0,0,0,0,0,0,0,0,0,0,0,0,0,0,0,0,0,0,0,0,0,0,0,0,0,0,0,0,0,0,0,0,0,0,0,0,0,0,0,0,6.7984,6.7984,0,6.7984,6.7984,6.7984,6.7886,6.7884,6.7881,6.7879,6.7878,6.788,6.7883,0,0,0,0,0,0,0,0,0,0,0,0,0,6.7901,6.7903,6.7984,6.7984,6.7984,6.7984,6.7984,6.7984,6.7887,6.7884,6.7881,6.7878,6.7877,6.788,6.7883,0,0,0,0,0,0,0,0,0,0,0,0,0,6.7922,6.7903,6.7984,6.7936,6.7931,6.7984,6.7984,6.7984,6.7887,6.7884,6.788,6.7876,6.7876,6.788,6.7883,6.7981,0,0,6.7894,6.7896,0,0,0,0,0,0,0,0,6.7921,6.7926,6.7943,6.7939,6.7934,6.7931,6.7954,6.7983,6.7888,6.7904,6.7879,6.7874,6.7899,6.79,6.7908,6.7981,6.7981,6.7894,6.7896,6.7898,6.7899,0,0,0,0,0,0,0,6.792,6.7925,6.7984,6.7943,6.7938,6.7914,6.7913,6.7959,6.7923,6.7902,6.7895,6.7897,6.7896,6.7905,6.7908,6.7981,6.7894,6.7897,6.79,6.7901,6.8133,6.8136,0,0,0,0,0,0,6.7925,6.7924,6.7984,6.7984,6.7918,6.7919,6.7917,6.7936,6.7922,6.7916,6.79,6.7892,6.7901,6.7904,6.7907,6.8019,6.7898,6.7901,6.7903,6.8129,6.8133,6.8138,0,0,0,0,0,0,6.7924,6.7931,6.7984,6.7952,6.7957,6.7924,6.7946,6.7938,6.7947,6.792,6.7913,6.7916,6.7898,6.7902,6.7963,6.8017,6.7903,6.7906,6.8124,6.813,6.8136,6.8244,0,0,0,0,0,0,6.7922,6.7931,6.7968,6.7954,6.7959,6.804,6.7949,6.7941,6.7954,6.7944,6.7934,6.7928,6.7896,6.7958,6.7967,6.802,6.7909,6.8119,6.8127,6.8134,6.8235,6.8253,6.8268,0,0,0,0,0,6.7919,6.7999,6.7971,6.7979,6.8005,6.8044,6.8046,6.8007,6.7959,6.7995,6.7978,6.7929,6.8011,6.7966,6.7974,6.8029,6.8115,6.8124,6.8133,6.8228,6.825,6.8268,0,0,0,0,0,0,6.8021,6.7997,6.7964,6.8043,6.8046,6.8027,6.8072,6.8032,6.8048,6.8038,6.7989,6.7987,6.8055,6.8049,6.7999,6.8123,6.8054,6.8066,6.8124,6.8144,6.816,6.8158,6.7912,0,0,0,0,0,6.8053,6.8087,6.8064,6.8135,6.8138,6.8105,6.8121,6.809,6.8091,6.8092,6.8079,6.8082,6.8108,6.8126,6.8149,6.8236,6.823,6.8278,6.8294,6.8308,6.8317,6.8359,6.8379,6.8168,6.8168,6.8167,0,0,6.8119,6.8109,6.8134,6.8155,6.8154,6.8189,6.8107,6.8148,6.8173,6.8098,6.8153,6.8145,6.8145,6.8218,6.825,6.8215,6.8375,6.8319,6.833,6.8332,6.8371,6.8391,6.8409,6.8174,6.8173,6.8172,0,0,6.8255,6.8253,6.831,6.8311,6.831,6.8288,6.8302,6.829,6.828,6.8336,6.828,6.831,6.8357,6.8358,6.8365,6.8503,6.8458,6.8513,6.8596,6.8639,6.8655,6.867,6.8716,6.8733,6.8522,6.8523,6.8523,0,6.8336,6.8386,6.8345,6.8389,6.8399,6.8334,6.8391,6.8394,6.8401,6.841,6.8371,6.8427,6.8423,6.8495,6.8528,6.8538,6.855,6.8511,6.8656,6.867,6.8683,6.8726,6.8744,6.8529,6.8528,6.8528,6.8527,0,6.8485,6.8521,6.8568,6.8575,6.8591,6.8642,6.8608,6.8629,6.8598,6.858,6.8637,6.863,6.8649,6.8664,6.8635,6.8732,6.8709,6.8665,6.8594,6.871,6.875,6.8767,6.8538,6.8536,6.8534,6.8532,0,0,6.8683,6.8667,6.8685,6.8686,6.8681,6.8708,6.8756,6.8775,6.8793,6.8801,6.8838,6.888,6.8838,6.8846,6.8817,6.8854,6.896,6.8804,6.8803,6.883,6.9063,6.9094,6.9114,6.8932,6.8935,6.8938,6.9062,0,6.8812,6.8891,6.8855,6.8939,6.897,6.8909,6.8951,6.8952,6.8937,6.8961,6.8945,6.8974,6.8918,6.8922,6.8957,6.894,6.9006,6.8931,6.8964,6.8966,6.8962,6.9135,6.9168,6.9286,6.9078,6.908,6.9082,0,6.8972,6.8985,6.9072,6.9059,6.9071,6.9109,6.9122,6.9148,6.9148,6.9134,6.9144,6.9105,6.9151,6.9084,6.9145,6.9095,6.9107,6.9101,6.9105,6.9103,6.9028,6.9135,6.9323,6.9339,6.9107,6.9105,6.9103,0,6.9103,6.9144,6.9199,6.9204,6.9192,6.9219,6.9216,6.9212,6.9225,6.9238,6.9245,6.9264,6.9273,6.9288,6.9255,6.9211,6.932,6.9251,6.9308,6.9309,6.933,6.9328,6.9519,6.9345,6.9345,6.9345,6.9344,0,6.9249,6.9303,6.9258,6.9292,6.9351,6.931,6.9369,6.9359,6.9356,6.9387,6.9337,6.9367,6.9324,6.935,6.9325,6.9377,6.9383,6.9372,6.9364,6.9374,6.9375,6.9378,6.9368,6.9349,6.9348,6.9347,6.9347,0,6.9403,6.9376,6.9432,6.9416,6.9414,6.9457,6.9444,6.9474,6.9457,6.9496,6.9503,6.9475,6.9502,6.9472,6.9498,6.9481,6.9551,6.9533,6.955,6.9544,6.9601,6.9594,6.9797,6.982,6.9635,6.9637,6.9638,0,6.9496,6.9536,6.9524,6.9541,6.954,6.9568,6.9581,6.9543,6.9559,6.9562,6.9592,6.9615,6.9631,6.9678,6.966,6.9679,6.9659,6.9728,6.9661,6.9669,6.9655,6.9652,6.9654,6.9741,6.9743,6.9745,6.9746,0,6.9662,6.9646,6.9667,6.9683,6.9699,6.971,6.9717,6.9734,6.9694,6.9714,6.9741,6.9754,6.978,6.9803,6.9817,6.9813,6.9773,6.9768,6.9782,6.979,6.9797,6.9791,6.9584,6.9763,6.9761,6.976,6.9759,6.9758,6.9786,6.9818,6.9814,6.9838,6.9839,6.9847,6.9874,6.986,6.9882,6.9899,6.9876,6.9909,6.9908,6.9922,6.9923,6.9948,6.9918,6.9939,6.9943,6.9948,6.9955,6.9797,6.9951,6.9951,6.995,6.995,6.9949,0,6.9946,6.9941,6.9964,6.9974,6.9993,6.9955,6.9961,6.9979,7.0009,7.0011,7.0028,7.0058,7.0081,7.0065,7.0083,7.0106,7.0088,7.0112,7.0108,7.0107,6.9982,6.9967,7.0126,7.0126,7.0126,7.0126,7.0126,7.0126,7.0032,7.0082,7.0066,7.0117,7.0112,7.0143,7.0149,7.0156,7.0157,7.0193,7.0211,7.0201,7.0195,7.0213,7.0232,7.0226,7.0234,7.0264,7.0252,7.0134,7.0117,7.01,7.0085,7.0267,7.0267,7.0374,7.0375,7.0376]}]]